Showing default

EUCROPIS, 43807

Orbit data source: Space-Track

EUCROPIS, 43807 is a payload satellite owned by DLR (DE) in SSO that was launched on Mon, 03 Dec 2018 UTC via an FALCON 9 launch vehicle from the Air Force Western Test Range (AFWTR). Payloads include a variety of satellites, spacecraft, and rockets equipped with specific instruments for various scientific and technological missions. These include communications satellites like Starlink; space stations such as the ISS; scientific satellites like the Hubble; Earth observation satellites from companies like Planet Labs, Umbra, and HawkEye 360; GPS; miniature CubeSats for education and research; and military/defense satellites.

Loading next visibility...
EUCROPIS details
Identifier
43807, 2018-099BB
Orbit
SSO
Last TLE update15 hours ago
Origin
Flag of DEDLR (DE / GER)
ManufacturerDLR-ISS
MissionOperational Civil Science
Bus & MotorCSBUS, Unknown motor
Mass250 kg wet, 250 kg dry
Launch date (UTC)
2018-12-03 (6 years ago)
Launch vehicle
FALCON 9
Launch site
Air Force Western Test Range (AFWTR)
Object type
Payload
Rocket body
Debris
Shape & HBRCyl + 4 Pan, 2.9 m
Radar Cross Section2.317 m², Large (>1 m²)

Expand to show TLE details & history

TLE from 15 hours ago
0 EUCROPIS
1 43807U 18099BB  24336.90015951  .00014328  00000-0  89775-3 0  9994
2 43807  97.5039  31.6809 0008377  90.7467 269.4722 15.09432463327306
Epoch: 2024-12-01T21:36Z
Definitive object data (Epoch: 2024-12-01T21:36:13.781Z)
Latitude-0.00003°
Longitude-3.60826°
Altitude541.064 km
Speed7.592 km/s
True Right ascension02h 06m 43s
True Declination0° 00' 00"
Sunlit
Object was in full shadow at TLE epoch
Visualization TLE readout
Latitude61.91742°
Longitude-17.22575°
Altitude543.297 km
Speed7.599 km/s
Apparent Right ascension23h 15m 00s
Apparent Declination15° 03' 48"
Sunlit
Object is in full shadow
Visualization observer readout
Local Sidereal Time09:58:48
Azimuth338.125° N
Elevation-32.23°
Doppler factor1
Orbital elements
Apogee altitude540.708 km
Perigee altitude529.126 km
Semi-major axis6,913.054 km
Eccentricity0.0008377
Inclination97.5039°
RAAN31.6809°
Arg. of periapsis90.7467°
True anomaly269.37621°
Mean anomaly269.4722°
Eccentric anomaly269.42421°
Mean motion3.77605 °/min
BSTAR0.00089775
Orbital period95.34 mins
Loading maneuver chart data...
Loading historical data...
Loading historical data...
Loading historical data...
Loading historical data...
Loading historical data...
Loading historical data...
Loading historical data...

EUCROPIS Visibility forecast

Observer location: undefined°, undefined

Span
Click to sort rows by Start time (UTC) header in descending order
Start Az.
Max El. time (UTC)
Max El. Az.
Max El.
End time (UTC)
End Az.
5 mins2024-12-02 17:15:57.755Z344.558° N2024-12-02 17:17:57.755Z299.99° NW29.823°2024-12-02 17:20:57.755Z227.194° WSW
6 mins2024-12-03 03:57:57.755Z171.407° S2024-12-03 04:00:57.755Z323.576° NNW43.143°2024-12-03 04:03:57.755Z345.566° N
|